星链-31291 (STARLINK-31291 )

导读 | 星芒AI

STARLINK-31291 是 SpaceX Starlink 卫星互联网项目中的一颗低轨卫星,属于第 11 批次发射的 Starlink 卫星之一。该卫星于 2023 年 11 月 10 日由猎鹰 9 号火箭从美国卡纳维拉尔角发射升空。它运行在约 540 公里的轨道高度,旨在为全球用户提供高速、低延迟的宽带互联网服务。Starlink 项目致力于构建一个由数千颗卫星组成的星座,以改善偏远地区的网络接入。STARLINK-31291 在该系统中发挥着关键作用,支持全球范围内的通信连接。

基本信息
目录编号:
59096
目录名称:
STARLINK-31291
国际标识:
2024-041Y
轨道中心:
EARTH
卫星名称:
星链-31291
卫星全名:
星链-31291 (STARLINK-31291 )
卫星状态:
在轨 (已飞行659 天)
发射日期:
2024-02-29 UTC
国别 :
美国 (US)
星等 :
--
轨道信息
数据来源 国际轨道数据
星历时间: 2025-12-19T11:25:52+0800
19小时前
查看轨道信息
半长轴: 6861.196km
偏心率: 0.0000944
轨道倾角: 43.003°
近地点辐角 252.435°
升交点赤经 45.521°
平近点角 107.640°
近地点: 482.411km
远地点: 483.707km
周期: 94.267分钟
每日圈数: 15.27577
详细信息
固有亮度:
5
最大亮度:
0.3
卫星平台:
Starlink v2.0 mini
覆盖范围:
全球
运营商:
太空探索技术公司
运营商所在国:
美国
制造商(研发单位):
太空探索技术公司
制造商所在国:
美国
使用方式:
暂无
卫星简介
星链(Starlink)计划是由太空探索技术公司(SpaceX)提出的一个巨型低轨卫星互联网星座项目,计划在2019年至2024年间在太空搭建由约1.2万颗卫星组成的“星链”网络,其中1584颗将部署在地球上空550千米处的近地轨道,并从2020年开始工作。该卫星仍在工作。
2D轨道图
3D轨道图
轨道高度分析图
轨道倾角分析图
轨道综合分析图
查看轨道综合分析图